RH
80 80 77 74 72 72 73 74 74 74 74 72 69 69 69 68 69 68 67 68 69 69 70 70 67 63 61 63 65 66 66 66 63 63 67 69 68 65 64 63 62 62
81 82 81 76 73 74 75 74 74 73 74 75 72 70 71 71 71 71 69 68 67 67 70 70 67 66 62 61 64 65 66 69 66 64 68 72 71 68 66 64 63 65
81 83 83 78 73 75 76 74 75 74 73 75 75 73 74 73 73 72 70 68 67 67 69 69 67 67 64 62 64 65 64 67 66 62 64 69 70 67 65 64 62 63
84 84 84 78 72 74 75 72 74 75 73 75 77 76 76 74 71 72 70 68 68 67 69 69 67 66 65 63 64 64 62 63 64 62 62 66 68 67 65 63 62 61
85 84 83 79 74 75 76 74 75 75 72 74 78 78 78 76 71 69 69 69 70 69 69 70 67 64 65 66 64 64 62 60 60 61 63 64 64 63 62 62 63 61
85 84 85 84 79 77 78 78 76 74 73 75 79 78 78 77 71 66 67 69 69 68 69 68 66 64 65 66 66 65 64 60 57 59 62 64 63 60 58 59 62 62
85 84 86 85 79 77 81 81 74 70 74 78 78 76 76 76 72 68 70 72 69 67 67 67 67 67 65 65 65 65 65 64 62 61 63 64 63 61 59 58 60 61
85 85 85 82 79 81 84 81 72 67 72 79 78 76 75 73 71 69 70 72 71 71 71 70 71 70 66 63 62 62 65 65 64 64 64 64 62 61 61 60 59 59
86 84 82 80 80 83 81 77 73 69 69 75 76 73 67 64 65 62 61 66 70 73 75 72 72 73 67 62 62 64 67 66 64 64 64 63 61 60 61 59 59 59
85 81 80 79 77 77 75 72 72 71 70 73 74 70 60 54 59 60 60 64 66 66 69 67 68 72 69 64 65 68 69 67 65 65 65 63 61 60 60 59 59 59
81 78 77 75 73 72 71 69 68 70 72 72 70 65 55 49 54 60 62 62 54 51 59 63 65 72 71 66 68 69 70 69 65 65 65 63 62 61 61 61 59 58
77 74 72 72 71 69 69 68 67 69 71 70 66 58 51 52 56 55 53 51 42 39 50 58 62 71 73 70 69 69 69 69 67 66 64 62 63 62 61 60 59 59
73 73 71 71 72 72 71 69 67 68 67 65 63 56 51 54 53 44 38 41 44 47 49 51 59 71 74 73 73 69 68 70 69 67 65 63 62 60 58 57 56 56
73 74 75 77 78 75 73 69 66 69 68 64 60 55 53 53 44 35 35 40 52 61 55 47 58 73 77 78 77 72 70 71 70 68 66 63 61 60 60 59 57 56
74 75 82 87 83 77 74 70 65 66 65 62 62 58 55 49 38 32 36 40 53 67 61 50 54 66 73 75 74 73 75 73 70 68 66 62 60 60 60 61 63 62
77 80 90 92 84 78 74 68 63 58 49 46 58 62 54 45 37 33 35 43 59 74 73 65 60 59 64 67 66 70 75 74 70 68 66 63 60 59 62 64 64 64
79 86 92 89 83 78 72 63 60 60 50 43 54 62 54 44 39 35 40 54 70 79 81 79 69 60 62 65 62 64 65 66 68 68 67 66 62 61 64 62 61 65
81 88 91 87 83 79 72 61 56 60 60 54 55 57 55 49 44 45 58 72 79 79 80 79 68 56 61 66 62 60 60 63 66 68 69 68 63 63 68 66 67 75
81 88 91 87 83 78 73 65 59 60 64 62 58 58 58 58 61 70 82 85 82 77 76 75 68 61 64 68 63 60 63 67 68 68 72 72 65 69 78 79 79 85
81 88 92 90 86 81 77 72 68 66 66 66 65 65 65 69 76 84 88 86 85 82 77 77 76 72 68 68 66 64 67 71 72 69 70 69 65 68 76 80 83 87
83 87 91 92 90 87 84 82 78 75 73 73 74 73 73 77 81 85 85 85 84 85 85 85 84 78 72 70 67 63 63 69 74 73 70 68 68 69 73 78 80 77
86 88 88 89 89 89 87 84 82 80 79 78 77 76 77 79 81 82 82 79 79 83 88 90 85 78 76 74 66 59 62 69 73 73 72 73 78 80 79 77 70 65
86 86 85 85 86 86 84 83 83 83 82 81 80 77 76 77 78 80 80 80 82 85 86 84 80 75 74 74 68 64 65 67 70 76 80 82 82 78 73 69 61 58
85 86 84 82 84 83 81 80 82 82 81 81 79 77 75 74 74 78 82 85 88 88 83 80 78 74 71 71 70 63 56 57 68 78 81 80 78 74 74 73 66 60
83 85 84 82 84 84 81 78 78 78 79 80 79 80 80 79 78 79 80 82 85 85 81 78 77 74 71 68 62 50 43 56 74 79 77 78 80 80 81 80 76 72
79 81 82 82 82 83 83 79 74 73 74 74 73 74 75 77 77 76 74 75 75 74 73 73 70 66 60 52 46 40 41 56 74 79 78 78 79 79 79 79 82 83
Wind_Speed
22 22 22 22 22 19 18 17 16 15 14 13 12 12 12 12 12 12 11 10 9 9 9 8 8 8 7 7 7 7 6 7 7 7 7 7 7 7 7 7 7 7
23 22 21 21 21 19 18 18 17 16 15 13 12 11 11 12 11 11 11 9 9 10 10 9 9 9 8 7 8 8 8 8 8 8 8 8 9 9 9 9 9 9
24 23 22 22 21 20 19 18 18 17 15 13 12 11 11 12 12 11 10 10 10 10 10 10 10 9 9 8 8 8 9 9 9 9 8 9 10 10 9 9 9 10
26 24 23 23 21 19 19 19 18 17 15 13 13 13 12 12 12 12 11 11 11 10 11 11 10 10 10 9 9 9 9 9 10 10 9 10 10 10 10 10 10 10
26 24 22 22 20 19 18 19 18 17 16 14 14 14 14 14 13 13 12 12 12 11 11 11 11 10 10 10 10 10 9 10 10 10 10 10 10 10 10 10 10 10
25 24 22 21 21 21 20 19 19 19 17 16 16 15 15 16 15 14 13 13 12 11 11 11 11 11 11 11 11 10 10 10 10 10 10 10 10 10 11 10 11 11
24 23 23 23 23 23 22 21 22 21 18 17 17 17 15 15 15 15 14 13 12 11 11 11 11 11 11 11 11 11 10 10 10 11 11 11 10 10 11 11 11 12
25 26 26 26 24 23 23 23 24 23 20 18 17 17 16 15 15 16 16 15 13 12 12 12 11 12 12 11 12 12 11 11 11 12 12 12 11 11 11 12 12 13
27 27 27 26 25 25 25 24 24 23 22 20 18 17 18 17 16 17 18 17 15 14 14 14 13 12 13 13 13 13 12 12 12 12 13 13 12 12 12 12 13 14
27 27 28 28 28 28 26 23 21 20 21 20 18 16 18 18 17 18 19 18 16 15 17 18 17 15 15 15 15 14 14 14 13 14 14 14 13 13 12 13 14 14
28 28 29 30 30 27 24 20 17 17 19 20 18 17 18 18 18 18 19 19 18 17 19 21 20 19 18 17 16 16 15 15 14 15 15 15 14 14 13 14 14 15
30 29 31 33 29 21 20 21 18 16 17 18 18 18 17 17 19 20 21 23 23 22 22 22 21 20 20 19 17 16 16 15 15 15 15 15 15 14 14 14 15 16
30 31 30 25 18 17 20 23 19 15 16 18 19 20 22 26 28 26 25 26 27 25 24 22 22 21 21 20 18 17 16 16 16 16 15 16 16 15 14 14 15 17
26 24 17 15 21 24 24 22 18 17 19 22 25 28 34 39 35 29 28 29 30 29 26 22 22 22 21 21 20 18 17 16 16 16 16 16 16 15 15 14 16 17
18 14 14 24 30 30 25 22 24 24 25 29 34 39 42 40 35 32 33 34 33 32 28 24 24 24 23 24 23 21 19 18 17 17 17 17 16 16 16 15 15 16
16 17 22 30 32 30 28 30 33 36 39 42 43 42 40 37 35 35 35 33 31 30 29 27 26 26 26 26 25 23 21 19 17 17 17 17 17 17 16 16 16 16
20 23 27 32 34 35 38 40 42 43 45 46 43 41 41 40 38 38 36 32 28 27 28 27 27 27 27 27 26 25 24 21 19 19 18 18 18 18 18 19 18 17
23 26 30 35 37 38 41 45 48 46 42 42 44 44 44 42 40 38 33 28 25 24 26 27 26 27 27 27 26 26 24 22 21 21 18 18 20 20 19 19 18 16
25 27 31 36 39 40 42 44 47 46 43 42 44 45 44 41 36 30 25 23 23 24 24 23 24 26 27 26 25 25 23 21 22 21 19 19 22 21 18 17 17 15
26 26 27 32 35 37 38 39 41 43 44 42 40 41 41 35 27 23 21 20 21 23 22 21 21 24 27 26 24 24 22 20 20 21 21 22 23 23 20 17 15 12
25 25 25 27 30 29 30 31 33 35 36 34 30 29 30 26 21 20 20 20 22 23 21 18 18 22 25 24 23 23 22 20 18 19 21 22 23 23 19 15 13 11
24 25 24 24 25 25 24 26 27 27 27 25 23 21 21 20 18 18 19 21 23 23 20 18 20 21 21 21 23 24 23 19 16 17 19 20 18 17 16 15 15 13
23 24 23 22 23 23 23 23 23 23 24 24 23 22 21 20 18 18 19 21 22 23 23 23 24 23 21 22 25 25 20 16 15 15 16 16 15 16 18 19 18 14
23 23 22 22 23 23 22 21 21 23 24 24 23 22 21 21 20 19 18 19 21 24 26 24 22 21 24 26 27 23 18 16 15 14 13 15 16 16 16 17 16 14
23 23 23 23 23 22 20 19 19 21 22 22 22 21 20 20 21 19 18 19 19 21 25 24 21 21 25 28 26 23 20 17 14 13 13 15 14 12 10 10 11 11
22 23 23 23 22 21 19 18 18 18 18 19 19 19 18 19 20 19 18 19 18 19 22 23 21 20 24 26 24 24 22 18 15 13 13 12 9 8 8 8 7 6
Wind_Direction
213 217 219 219 219 220 221 219 219 219 222 224 225 224 220 215 209 206 212 214 206 203 205 206 208 209 210 213 216 222 225 223 223 221 223 229 236 241 247 251 255 262
210 214 216 216 216 217 218 218 218 219 220 221 223 222 216 211 204 203 211 212 206 206 206 207 208 208 211 215 217 223 228 229 232 231 232 238 243 245 247 250 254 259
207 211 212 214 214 213 214 215 217 218 218 218 219 215 205 202 199 198 204 207 208 210 208 211 212 210 212 216 217 224 232 236 239 243 244 246 251 254 255 256 259 262
204 207 210 214 214 212 213 215 214 214 216 216 214 207 197 194 194 195 199 204 209 212 211 213 216 214 215 217 219 227 236 243 246 250 252 252 256 259 262 264 263 263
203 205 209 213 211 208 211 212 209 211 215 213 208 201 193 191 191 195 199 202 207 213 214 215 218 220 220 219 222 229 237 245 248 249 250 253 256 258 260 263 263 261
201 202 205 206 205 206 208 207 207 211 211 206 205 201 193 192 195 197 199 201 206 213 214 217 221 224 226 226 227 231 238 248 253 252 250 250 253 259 260 260 260 261
196 197 199 202 204 206 203 202 208 212 205 200 206 205 195 193 197 197 196 198 205 214 217 220 224 227 231 232 232 235 239 247 253 253 252 251 252 256 258 259 260 261
193 194 200 204 204 202 198 199 207 210 203 199 203 203 198 197 200 202 201 201 203 212 219 222 224 229 235 236 237 240 240 244 250 250 248 248 250 253 254 257 260 260
192 195 200 202 200 200 198 196 199 201 203 204 200 200 205 207 210 213 213 209 207 213 224 229 229 231 234 236 238 240 240 243 247 248 248 247 247 249 252 256 259 259
193 196 198 198 199 201 198 192 188 189 199 202 194 195 205 208 213 218 217 212 207 215 232 238 235 232 232 235 236 237 239 242 244 247 249 248 246 247 251 256 258 257
194 196 198 199 200 199 191 181 175 179 189 191 186 192 202 205 210 213 213 210 203 205 223 233 234 230 231 232 234 236 238 240 244 247 247 247 245 245 249 255 258 258
195 198 200 201 198 189 172 164 166 174 179 179 183 193 199 203 207 210 214 216 211 203 206 221 230 230 230 230 232 236 238 239 242 244 245 247 246 246 250 255 259 260
197 199 201 197 177 153 147 154 161 165 170 177 185 194 203 206 207 212 220 227 225 213 202 208 222 226 227 229 231 234 237 239 241 243 246 247 248 251 253 256 260 262
197 197 185 148 137 143 148 158 169 173 183 196 202 208 212 210 208 213 220 225 228 223 211 206 214 219 221 225 228 231 234 238 243 246 248 250 252 254 254 257 262 263
187 176 136 125 137 147 152 168 186 191 200 214 217 215 212 210 210 214 218 220 224 224 218 210 212 216 218 223 228 230 231 238 245 249 251 254 256 257 257 259 261 264
168 149 132 135 147 158 168 186 198 201 207 217 219 213 208 209 214 216 216 218 222 225 223 217 216 220 223 225 228 228 229 236 245 249 251 255 258 262 264 265 267 271
162 147 144 151 164 177 188 199 206 206 208 213 214 211 209 212 217 217 217 217 217 221 224 221 221 225 227 228 228 229 231 236 243 248 250 253 259 264 266 270 275 274
166 158 160 165 172 182 192 203 210 210 210 210 212 212 212 214 217 218 217 214 211 216 223 224 226 229 230 230 230 231 233 236 242 248 250 252 258 264 267 272 276 274
175 168 168 171 176 184 192 199 206 210 212 213 213 215 214 214 215 216 214 212 212 217 223 226 229 232 231 231 233 233 234 235 239 243 246 251 256 261 266 270 272 272
179 170 168 174 180 185 190 196 204 210 214 216 216 216 216 215 214 213 213 215 216 218 223 225 228 233 233 232 231 232 234 237 240 242 245 250 256 261 264 265 264 262
179 172 171 176 180 184 189 197 204 210 214 216 215 217 218 216 216 214 212 216 219 219 220 221 224 232 235 231 227 229 234 240 242 243 247 252 256 259 259 256 256 263
175 171 174 181 184 187 193 200 205 209 213 214 216 220 219 216 218 217 216 221 224 221 220 221 224 230 232 228 225 226 231 237 242 244 247 248 247 246 248 252 260 271
172 170 178 189 192 195 201 205 208 212 216 217 219 222 222 220 223 223 221 221 218 215 218 224 226 228 227 223 222 223 225 234 240 239 236 233 231 238 247 253 260 266
175 173 181 190 194 197 202 204 207 213 216 218 221 225 227 227 229 228 219 212 210 212 216 219 219 222 224 221 219 222 230 239 236 224 223 233 241 245 247 251 259 263
179 180 182 186 190 193 196 200 204 208 211 214 220 225 227 227 228 226 216 210 209 209 213 214 211 215 223 224 224 231 238 236 225 218 229 242 246 244 246 256 266 268
178 182 183 185 188 189 191 196 200 204 207 210 214 219 221 222 223 224 220 218 216 211 210 213 212 216 226 230 231 236 236 227 219 226 237 244 246 246 250 254 252 257